Temperature
22 22 21 21 20 19 18 18 17 17 17 17 17 17 17 17 17 16 16 16 16 16 16 17 17 17 17 17 17 17 17 17 17 17 17 17 17 17 17 17 17 17 17
22 22 21 21 20 19 18 17 17 17 16 16 16 17 17 17 17 16 16 16 16 16 16 17 16 17 17 17 17 17 17 17 17 17 17 17 17 17 17 17 17 17 17
21 21 21 20 19 19 18 17 17 17 16 16 16 17 17 17 16 16 16 16 16 16 16 16 16 17 17 17 17 17 17 17 17 17 17 17 17 17 17 17 17 17 17
20 20 19 19 19 18 18 17 17 17 17 17 16 16 16 16 16 16 16 16 16 16 16 16 16 16 17 17 17 16 16 16 17 17 17 17 17 17 17 17 17 17 17
19 19 18 18 18 18 16 16 16 15 15 16 16 16 16 16 16 16 16 16 16 16 16 16 16 16 16 16 16 16 16 16 16 17 17 17 17 17 17 17 17 17 17
18 18 17 17 17 17 16 15 16 15 14 15 14 14 15 15 15 16 16 16 16 16 16 16 16 16 16 16 16 16 16 16 16 16 16 16 16 16 17 17 17 17 17
16 16 16 16 16 16 16 16 15 14 14 14 13 14 14 15 15 15 15 16 15 15 15 15 15 16 15 16 16 16 16 15 15 16 16 16 16 16 16 16 17 17 17
15 15 15 15 15 15 15 15 15 14 14 14 13 13 14 14 15 15 15 15 15 15 15 15 15 15 15 15 16 16 16 15 15 15 16 16 16 16 16 16 16 16 17
15 15 15 15 14 14 15 15 15 14 13 13 13 13 13 14 14 14 14 15 14 14 15 15 15 15 15 15 15 15 15 15 15 15 15 15 15 16 16 16 16 16 16
13 13 13 14 14 14 14 14 14 13 13 13 13 13 13 13 14 14 14 14 14 14 15 15 14 15 15 15 15 15 15 15 15 15 15 15 15 16 16 16 16 16 16
12 12 12 13 13 13 13 13 13 13 13 13 13 13 13 13 13 14 14 14 14 14 14 14 14 15 14 14 14 14 14 14 14 15 15 15 15 15 16 16 16 16 16
10 11 11 12 12 13 13 13 13 13 13 13 13 13 13 13 13 14 14 13 14 14 14 14 14 14 14 14 14 14 14 14 14 14 15 15 15 15 15 15 16 16 16
9 10 10 10 11 12 12 12 12 12 12 12 12 12 12 12 13 13 13 13 13 13 13 13 13 13 13 13 13 13 13 13 14 14 14 15 15 15 15 15 15 15 16
9 10 11 11 11 11 11 11 11 12 12 12 12 12 12 12 12 12 12 12 12 13 13 13 13 13 13 13 13 13 13 13 13 14 14 15 15 15 14 15 15 15 16
8 8 9 10 11 11 11 11 11 11 11 11 11 11 12 12 12 12 12 12 12 12 12 12 12 13 13 13 13 12 12 12 12 13 13 14 15 14 14 15 15 15 15
8 8 8 9 9 9 10 10 10 10 11 11 11 11 11 11 12 12 12 12 12 12 12 12 12 12 12 12 12 12 12 12 12 12 13 13 14 14 14 14 15 15 15
6 7 7 8 9 9 9 9 9 10 10 10 10 11 11 10 11 11 11 12 12 12 12 12 12 12 12 12 12 12 12 12 12 12 12 12 13 14 14 14 14 15 15
6 6 7 7 7 8 8 8 8 8 8 8 9 9 9 9 9 10 10 10 11 11 12 12 12 12 13 12 12 12 12 12 12 12 12 12 13 13 13 13 14 14 14
5 5 5 6 6 6 6 6 6 6 6 6 7 7 7 7 7 7 8 9 9 10 11 11 11 11 12 13 13 12 12 12 12 12 12 12 12 13 13 13 14 14 14
4 4 4 4 4 4 4 4 5 5 4 4 4 5 5 5 5 5 6 7 7 8 9 10 10 10 10 11 12 12 12 12 12 12 12 12 12 13 13 13 13 13 13
3 3 3 2 2 2 2 2 2 2 2 2 2 3 3 3 4 4 4 5 6 7 8 8 9 9 9 10 10 11 11 12 12 12 12 12 12 12 13 13 13 13 13
2 2 1 -1 -2 -2 -2 -1 -1 -0 0 1 1 1 1 2 2 2 3 3 4 5 6 7 8 8 9 9 9 9 10 10 11 12 12 13 13 12 12 12 12 12 13
0 -0 -1 -2 -2 -2 -2 -2 -2 -2 -2 -2 -1 -0 0 1 1 2 2 2 2 3 4 5 6 6 7 9 9 9 9 10 10 11 12 12 12 12 12 12 12 12 13
-2 -3 -3 -4 -4 -4 -3 -3 -3 -4 -4 -5 -5 -4 -2 -1 0 1 1 1 1 2 2 3 4 5 5 6 8 8 8 9 10 10 11 11 11 11 11 12 12 12 12
-4 -5 -4 -4 -4 -4 -4 -4 -4 -5 -5 -6 -6 -6 -6 -5 -4 -2 -1 -1 -1 -0 1 1 2 3 4 5 7 7 8 8 9 10 10 10 11 11 11 11 12 12 12
-5 -5 -4 -5 -6 -6 -5 -5 -6 -7 -7 -7 -7 -7 -7 -6 -6 -5 -4 -4 -3 -2 -2 -0 1 2 4 4 5 6 7 7 8 9 9 10 10 10 10 10 11 11 12
Wind_Speed
4 8 11 10 8 7 5 2 2 2 2 4 3 2 2 1 1 2 2 3 3 3 2 2 3 3 3 3 4 4 4 4 3 5 5 6 7 8 8 8 8 7 8
3 8 9 8 7 6 4 1 0 2 2 5 3 0 1 2 3 4 4 4 4 4 4 4 5 4 3 3 3 4 4 4 4 4 4 4 6 7 6 7 7 7 8
4 5 4 5 3 3 2 2 2 1 2 3 2 1 3 4 4 4 6 7 7 7 7 7 7 6 5 5 5 4 4 3 3 3 3 2 2 5 6 6 7 8 8
6 4 3 1 2 3 3 3 4 3 3 3 3 3 4 5 5 6 6 7 9 11 10 9 9 7 6 6 6 6 5 5 4 3 2 2 2 4 5 6 7 8 8
8 7 6 3 3 5 5 5 5 5 4 5 4 5 6 6 6 8 8 9 10 10 10 10 10 8 7 7 7 7 6 6 5 3 2 2 3 4 6 7 7 8 8
7 7 6 4 4 5 6 6 7 7 6 6 6 7 8 9 10 8 10 11 10 9 8 8 9 9 7 6 7 7 8 7 5 3 3 4 6 7 8 7 8 9 9
8 11 9 8 7 6 6 7 7 7 7 7 8 7 9 12 11 8 9 11 10 7 5 6 7 7 7 7 6 6 6 7 6 4 4 6 8 11 11 10 10 10 10
15 19 20 20 17 13 10 8 8 8 8 8 9 8 11 13 11 9 10 10 8 4 4 5 7 7 6 6 5 4 5 6 5 5 5 6 7 10 12 13 12 11 11
24 23 24 24 23 21 16 12 8 7 7 7 8 11 12 11 7 9 9 9 8 6 6 7 8 8 8 7 6 5 5 6 5 6 6 7 9 10 13 13 14 13 12
20 22 24 24 25 24 23 24 21 14 10 8 6 9 11 10 6 5 7 8 9 9 7 8 8 8 7 7 6 6 6 6 5 6 8 9 11 12 13 15 16 16 15
22 19 24 24 25 24 23 25 26 26 22 17 8 8 9 8 8 7 8 9 9 9 9 9 9 8 7 6 6 7 7 6 6 6 8 12 14 15 15 16 17 17 17
22 19 20 23 25 24 23 23 24 24 24 23 18 13 10 10 11 11 11 13 13 13 12 11 10 10 8 7 7 7 6 8 7 8 9 13 15 18 17 17 18 19 18
15 18 16 19 23 23 21 21 20 22 22 23 25 23 18 13 10 8 7 9 11 11 10 10 10 10 8 7 7 7 8 9 9 9 10 14 16 18 20 20 20 20 19
17 19 17 20 21 21 20 19 19 19 20 19 21 23 20 11 9 9 6 6 6 7 6 7 5 7 8 8 7 7 8 8 9 10 13 16 18 19 20 21 20 21 20
20 20 19 19 19 20 17 16 17 19 19 19 20 23 23 13 7 10 8 9 7 6 5 4 4 5 5 6 7 6 6 8 10 10 11 16 19 19 20 22 22 21 22
18 17 17 16 21 21 16 14 12 15 17 18 18 21 23 19 14 10 10 8 8 8 7 5 4 5 6 6 6 5 6 8 9 10 11 14 18 19 20 22 24 24 23
16 17 17 15 20 19 17 16 15 16 15 14 15 18 21 21 20 16 10 11 11 14 11 6 6 4 5 5 6 7 6 6 7 9 11 11 13 16 19 22 24 24 24
15 16 17 18 18 18 16 17 15 16 14 13 14 16 19 20 20 16 10 10 14 14 7 7 6 5 5 5 6 7 6 7 7 8 10 10 10 11 13 18 22 23 23
15 15 17 16 15 16 16 17 16 16 14 14 13 14 19 19 20 16 9 10 16 9 7 7 8 6 6 6 6 6 7 7 7 6 7 7 10 10 10 12 17 20 22
15 16 17 17 16 16 14 14 12 11 12 14 12 14 19 18 19 16 11 12 13 9 8 8 8 7 7 7 6 7 7 7 6 6 7 6 6 9 11 11 11 12 17
17 17 18 18 18 15 13 14 13 13 11 9 11 16 19 20 21 16 9 10 11 11 10 9 9 9 6 5 4 5 6 7 7 7 7 6 6 7 8 9 9 9 10
19 18 18 17 15 14 14 15 12 12 11 9 13 16 18 20 20 17 11 11 11 12 12 9 9 7 5 5 5 3 3 4 5 6 6 6 7 5 6 7 8 9 10
20 19 17 16 15 15 17 14 12 12 10 9 11 12 17 20 19 18 15 10 11 10 10 10 9 9 8 7 7 6 4 5 2 2 3 5 5 5 6 7 7 9 11
18 18 17 16 14 15 17 15 17 13 13 14 12 12 14 19 18 17 16 13 10 10 9 10 10 9 10 9 6 7 5 4 4 2 2 2 3 5 5 5 8 7 10
15 15 17 17 14 14 14 16 14 13 13 13 13 14 13 13 15 16 16 13 10 10 10 11 11 11 10 10 8 5 3 3 4 4 3 3 2 3 3 4 6 5 7
14 15 17 17 16 15 16 17 15 14 14 14 15 14 13 11 10 13 17 14 13 13 13 12 11 13 12 12 9 7 6 5 5 4 4 3 4 3 2 2 3 4 3
Wind_Direction
226 206 190 178 183 190 200 163 116 71 185 153 122 105 96 94 145 187 204 202 180 181 209 219 215 201 182 170 161 158 152 139 141 134 139 150 152 144 141 141 135 127 119
164 182 184 180 188 197 205 211 24 53 91 146 132 127 283 286 279 271 264 261 260 255 246 241 239 225 203 189 182 175 172 161 150 137 135 151 152 149 144 149 151 142 134
71 144 175 189 202 220 244 279 309 335 15 59 78 297 274 271 281 278 272 271 271 266 258 250 245 241 221 195 193 196 189 175 166 148 127 112 138 155 148 147 149 144 145
55 51 22 285 293 301 298 297 293 296 310 332 327 291 287 286 281 283 286 288 283 269 258 251 246 245 230 206 199 203 200 187 176 175 161 168 212 181 167 160 158 153 150
42 30 16 329 316 311 308 308 302 296 284 278 276 273 267 272 284 291 292 294 295 279 268 261 254 250 244 232 220 212 208 202 189 189 202 223 266 232 190 178 171 160 159
22 17 4 328 318 319 318 319 308 295 288 283 279 278 276 266 256 267 286 290 291 291 281 275 262 260 263 254 241 227 223 215 203 200 227 250 260 243 206 183 168 166 166
2 2 357 354 346 342 342 331 319 311 298 286 276 268 279 274 258 240 272 278 268 267 285 292 282 274 268 261 257 252 244 227 202 212 236 263 264 233 205 184 178 175 172
15 9 5 360 358 356 354 345 342 331 308 292 290 276 268 266 256 257 272 272 260 263 290 290 284 281 281 278 278 270 265 254 226 216 233 255 264 231 214 195 188 185 183
20 16 10 4 1 357 350 348 339 325 305 302 312 301 285 290 286 290 277 275 276 279 295 296 293 295 288 281 280 280 277 274 256 243 240 247 261 252 231 209 197 195 193
22 20 13 9 8 3 2 360 355 341 317 288 265 283 287 288 273 290 286 272 275 274 272 281 281 273 280 286 285 283 288 296 286 260 255 254 255 259 247 224 205 200 198
20 18 16 14 12 9 11 6 5 0 353 337 297 286 298 298 295 290 271 264 268 259 258 264 267 267 266 271 275 275 279 281 288 280 270 267 263 261 252 231 214 204 202
18 15 17 16 14 12 11 7 6 6 2 359 356 337 314 307 297 283 272 277 278 264 260 261 260 258 263 266 270 269 263 266 267 269 272 276 275 269 261 241 221 209 205
18 17 15 17 15 14 11 9 8 5 4 4 6 1 347 330 314 304 290 291 294 285 280 274 270 265 252 245 254 257 252 250 252 261 267 270 274 273 265 254 231 217 208
13 11 5 10 10 8 7 8 6 5 4 360 358 3 2 353 343 332 311 300 297 297 294 287 277 278 267 247 247 255 255 247 243 249 259 264 266 268 264 256 240 223 212
11 4 1 2 4 357 357 0 2 2 1 357 360 4 4 360 356 346 333 322 303 295 285 281 283 277 270 263 250 240 239 244 246 246 248 255 256 258 258 256 247 234 224
12 5 359 0 3 356 350 348 353 357 355 357 1 3 3 2 358 352 342 332 319 306 284 266 259 264 264 258 254 240 242 247 248 247 246 250 251 251 251 252 249 243 234
2 356 355 355 358 355 350 344 345 351 353 353 355 357 360 360 356 350 342 338 333 324 302 276 258 247 254 254 254 253 246 247 248 249 246 239 246 248 247 248 248 242 236
359 356 353 352 351 348 346 343 340 343 345 346 347 351 354 354 353 346 337 333 331 326 313 293 273 257 248 236 242 248 243 240 241 243 241 232 231 240 243 244 243 236 235
357 354 351 352 350 346 346 346 337 333 333 333 338 348 346 345 346 341 330 326 326 320 314 303 287 262 252 249 244 245 237 233 238 235 234 226 222 225 232 240 238 233 233
354 354 353 352 351 349 348 346 342 337 331 330 328 340 337 334 336 335 327 327 323 318 315 314 299 280 255 246 251 257 247 235 232 229 235 231 223 221 219 224 231 236 233
352 354 355 350 350 349 355 346 340 334 329 327 324 333 331 332 332 332 330 324 323 317 312 309 303 286 269 237 242 263 255 239 233 228 227 225 223 221 217 215 219 232 237
352 350 353 350 349 352 358 339 331 325 323 326 329 329 332 334 331 333 331 324 322 319 314 317 315 301 274 219 218 229 278 282 250 233 222 218 224 215 223 224 220 226 236
351 347 344 344 348 353 357 341 335 330 328 332 334 334 335 334 336 333 328 326 322 316 313 317 312 308 294 273 222 208 205 230 263 264 224 222 227 224 222 226 227 228 235
345 338 337 340 347 356 355 346 342 343 342 340 336 332 330 330 330 330 329 325 316 311 311 311 312 306 295 283 263 233 226 199 195 228 260 237 234 233 234 228 230 227 233
341 346 347 345 348 357 354 345 341 339 341 336 333 331 328 326 329 330 326 317 309 310 309 307 307 299 292 280 268 248 220 241 235 186 213 236 254 245 246 246 228 222 220
349 354 346 342 343 349 351 342 342 340 339 334 333 333 328 327 329 331 330 324 320 317 311 304 298 292 289 275 261 246 225 204 203 182 182 205 224 247 247 265 236 215 188
Height
1531 1530 1529 1529 1530 1530 1531 1532 1533 1533 1534 1533 1534 1534 1535 1535 1536 1537 1537 1537 1537 1537 1538 1538 1538 1538 1538 1539 1539 1540 1540 1541 1541 1541 1541 1541 1542 1542 1542 1543 1544 1544 1545
1533 1533 1532 1532 1532 1532 1532 1533 1533 1533 1533 1534 1534 1534 1535 1535 1535 1535 1536 1537 1537 1537 1537 1537 1537 1537 1537 1537 1538 1539 1539 1539 1539 1540 1540 1541 1542 1542 1543 1543 1543 1544 1545
1536 1536 1535 1535 1534 1534 1534 1534 1533 1533 1533 1533 1533 1534 1534 1534 1534 1534 1534 1535 1535 1536 1535 1535 1536 1536 1535 1535 1536 1537 1538 1538 1539 1539 1539 1540 1541 1542 1542 1543 1544 1544 1545
1538 1538 1537 1537 1536 1536 1535 1534 1533 1533 1533 1532 1532 1533 1533 1533 1533 1533 1533 1533 1534 1534 1534 1534 1534 1534 1534 1535 1535 1536 1537 1538 1539 1539 1539 1540 1541 1541 1541 1542 1543 1544 1545
1540 1540 1539 1538 1537 1537 1536 1535 1534 1533 1532 1532 1531 1531 1531 1531 1531 1532 1531 1531 1532 1532 1532 1532 1532 1532 1533 1534 1534 1535 1536 1537 1538 1538 1539 1539 1540 1540 1540 1541 1543 1543 1544
1543 1542 1541 1540 1538 1537 1536 1535 1534 1533 1532 1531 1531 1530 1531 1530 1529 1529 1529 1529 1529 1530 1530 1530 1531 1531 1531 1532 1533 1533 1534 1536 1536 1536 1537 1538 1539 1540 1540 1540 1541 1542 1543
1546 1544 1543 1542 1540 1538 1536 1535 1533 1532 1531 1531 1529 1529 1529 1529 1528 1528 1527 1527 1528 1528 1529 1529 1529 1529 1530 1530 1531 1531 1532 1533 1534 1535 1536 1538 1539 1540 1540 1540 1541 1542 1543
1544 1543 1541 1540 1539 1538 1536 1535 1533 1531 1530 1529 1528 1528 1527 1528 1528 1527 1526 1526 1526 1526 1527 1527 1527 1527 1528 1528 1529 1529 1530 1531 1532 1533 1534 1535 1537 1538 1539 1539 1539 1541 1542
1544 1543 1541 1539 1537 1536 1536 1535 1533 1531 1529 1528 1527 1526 1525 1525 1525 1525 1524 1524 1524 1524 1524 1524 1524 1525 1526 1526 1527 1527 1528 1528 1529 1530 1531 1532 1533 1535 1536 1537 1537 1539 1540
1545 1544 1542 1540 1538 1536 1535 1534 1533 1532 1530 1528 1526 1524 1523 1523 1523 1522 1521 1522 1522 1522 1521 1521 1521 1521 1522 1523 1523 1524 1525 1525 1526 1527 1528 1529 1530 1531 1532 1534 1535 1536 1538
1547 1546 1544 1542 1540 1537 1535 1534 1532 1530 1529 1527 1526 1524 1522 1522 1521 1520 1520 1520 1519 1518 1518 1518 1518 1518 1518 1519 1519 1519 1520 1521 1522 1523 1524 1525 1527 1528 1530 1531 1533 1533 1535
1551 1549 1547 1544 1541 1539 1536 1534 1532 1530 1528 1526 1524 1522 1521 1520 1519 1518 1517 1517 1517 1516 1516 1516 1516 1516 1515 1515 1516 1516 1516 1517 1517 1518 1520 1521 1523 1524 1526 1527 1529 1530 1531
1558 1554 1550 1547 1544 1540 1537 1534 1531 1529 1527 1524 1521 1519 1518 1516 1515 1515 1514 1514 1513 1512 1512 1512 1512 1512 1512 1512 1512 1512 1512 1512 1512 1513 1515 1517 1518 1519 1521 1524 1526 1527 1529
1559 1556 1553 1550 1547 1543 1540 1536 1532 1528 1525 1522 1520 1518 1516 1514 1512 1511 1510 1510 1509 1508 1508 1508 1508 1508 1508 1509 1509 1508 1508 1508 1507 1508 1509 1511 1513 1514 1516 1519 1521 1524 1525
1560 1557 1554 1551 1548 1545 1542 1538 1534 1530 1526 1523 1519 1516 1513 1511 1509 1508 1506 1505 1504 1503 1503 1503 1503 1503 1504 1504 1504 1503 1503 1503 1503 1503 1503 1505 1507 1509 1511 1514 1516 1519 1521
1563 1560 1557 1553 1549 1545 1541 1537 1533 1529 1526 1523 1519 1515 1512 1509 1506 1504 1502 1502 1500 1499 1498 1497 1498 1498 1498 1498 1498 1498 1498 1499 1499 1499 1498 1499 1501 1503 1506 1508 1510 1513 1516
1567 1563 1558 1553 1549 1545 1540 1536 1531 1527 1523 1520 1516 1513 1510 1506 1503 1500 1498 1497 1496 1494 1492 1492 1492 1492 1492 1492 1492 1492 1493 1493 1494 1494 1494 1494 1495 1496 1499 1502 1504 1507 1510
1567 1562 1558 1553 1548 1542 1538 1534 1529 1525 1521 1517 1513 1508 1505 1501 1498 1495 1493 1491 1489 1488 1487 1485 1485 1485 1485 1484 1485 1486 1486 1487 1488 1489 1489 1489 1489 1490 1492 1495 1498 1501 1504
1567 1561 1555 1549 1544 1538 1534 1530 1525 1520 1516 1512 1509 1504 1500 1496 1492 1489 1487 1485 1483 1481 1479 1478 1477 1478 1477 1477 1477 1478 1479 1480 1480 1481 1482 1483 1484 1485 1486 1488 1491 1495 1498
1567 1561 1555 1548 1542 1535 1529 1524 1519 1514 1510 1506 1503 1500 1495 1491 1487 1483 1479 1478 1476 1474 1471 1470 1470 1470 1470 1471 1470 1470 1471 1472 1473 1474 1475 1476 1477 1479 1480 1482 1485 1488 1491
1564 1557 1551 1545 1539 1533 1526 1520 1514 1509 1505 1501 1497 1494 1490 1485 1481 1477 1474 1471 1469 1467 1464 1463 1462 1463 1463 1465 1465 1463 1464 1465 1465 1466 1468 1469 1471 1473 1475 1476 1479 1482 1485
1563 1555 1548 1541 1535 1529 1524 1519 1514 1508 1504 1500 1494 1489 1485 1480 1477 1473 1468 1465 1463 1461 1458 1456 1456 1455 1456 1458 1459 1459 1458 1458 1456 1458 1460 1462 1464 1466 1468 1470 1472 1475 1478
1564 1556 1549 1543 1537 1530 1522 1516 1510 1504 1500 1495 1489 1484 1480 1475 1471 1468 1464 1460 1457 1455 1451 1449 1449 1449 1448 1449 1451 1454 1453 1451 1450 1451 1452 1453 1456 1458 1461 1463 1465 1467 1470
1562 1556 1549 1542 1536 1529 1522 1515 1509 1503 1497 1491 1486 1481 1476 1471 1468 1463 1459 1455 1452 1449 1444 1442 1441 1441 1440 1440 1443 1445 1447 1447 1447 1446 1446 1447 1449 1451 1453 1456 1458 1460 1462
1558 1552 1545 1538 1532 1526 1520 1514 1508 1503 1498 1492 1486 1480 1475 1469 1462 1457 1453 1450 1446 1441 1437 1435 1435 1434 1432 1433 1435 1437 1438 1439 1440 1441 1441 1442 1444 1445 1447 1449 1451 1453 1456
1556 1549 1541 1535 1530 1524 1519 1513 1507 1502 1496 1490 1484 1477 1471 1466 1461 1455 1449 1443 1438 1434 1431 1428 1426 1425 1424 1424 1425 1427 1429 1431 1432 1433 1435 1437 1439 1440 1441 1442 1444 1447 1450